When you browse on this site, cookies collect data to enhance your experience and personalize the content and advertising you see.
Visit our Privacy Policy to learn more. By continuing to use the site, you agree to this use of cookies and data.
  • In Hungary
  • List of Countries
  • For 7 days
  • Water Temperature
  • Satellite Maps
  • Weather Map
  • News
  • Weather Widgets
  • user-avatar
    Login

    Hourly Weather Urbana

    Today, 25 June, Tuesday

    Time Temperature Precipitation Wind Pressure Humidity
    00:00 +18°C° 0 mm 4 mps 739 mmHg 95%
    01:00 +17°C° 0 mm 4 mps 739 mmHg 95%
    02:00 +17°C° 0 mm 4 mps 739 mmHg 95%
    03:00 +17°C° 0 mm 3 mps 738 mmHg 95%
    04:00 +17°C° 0 mm 3 mps 739 mmHg 94%
    05:00 +18°C° 0 mm 4 mps 740 mmHg 92%
    06:00 +19°C° 0 mm 4 mps 740 mmHg 90%
    07:00 +21°C° 0 mm 4 mps 741 mmHg 85%
    08:00 +23°C° 0 mm 5 mps 741 mmHg 80%
    09:00 +25°C° 0 mm 5 mps 741 mmHg 75%
    10:00 +26°C° 0 mm 6 mps 741 mmHg 72%
    11:00 +27°C° 0 mm 6 mps 741 mmHg 69%
    12:00 +28°C° 0 mm 6 mps 741 mmHg 66%
    13:00 +28°C° 0 mm 7 mps 741 mmHg 67%
    14:00 +28°C° 0 mm 7 mps 741 mmHg 67%
    15:00 +28°C° 0 mm 7 mps 741 mmHg 68%
    16:00 +28°C° 0 mm 6 mps 741 mmHg 73%
    17:00 +27°C° 0 mm 5 mps 741 mmHg 77%
    18:00 +27°C° 0 mm 4 mps 741 mmHg 81%
    19:00 +26°C° 0.1 mm 4 mps 741 mmHg 82%
    20:00 +25°C° 0.1 mm 4 mps 742 mmHg 83%
    21:00 +23°C° 0.1 mm 5 mps 742 mmHg 84%
    22:00 +22°C° 0.1 mm 4 mps 742 mmHg 87%
    23:00 +21°C° 0.1 mm 3 mps 742 mmHg 90%

    Tomorrow, 26 June, Wednesday

    Time Temperature Precipitation Wind Pressure Humidity
    00:00 +21°C° 0.1 mm 3 mps 743 mmHg 92%
    01:00 +21°C° 0 mm 3 mps 742 mmHg 93%
    02:00 +20°C° 0 mm 3 mps 742 mmHg 93%
    03:00 +20°C° 0 mm 3 mps 742 mmHg 93%
    04:00 +20°C° 0.1 mm 3 mps 743 mmHg 91%
    05:00 +21°C° 0.1 mm 3 mps 743 mmHg 90%
    06:00 +21°C° 0.1 mm 3 mps 744 mmHg 89%
    07:00 +24°C° 0 mm 3 mps 744 mmHg 85%
    08:00 +26°C° 0 mm 3 mps 744 mmHg 81%
    09:00 +28°C° 0 mm 2 mps 744 mmHg 77%
    10:00 +29°C° 0.3 mm 3 mps 744 mmHg 75%
    11:00 +30°C° 0.3 mm 3 mps 744 mmHg 72%
    12:00 +31°C° 0.3 mm 3 mps 744 mmHg 70%
    13:00 +31°C° 0.5 mm 3 mps 744 mmHg 70%
    14:00 +31°C° 0.5 mm 3 mps 744 mmHg 71%
    15:00 +32°C° 0.5 mm 4 mps 744 mmHg 71%
    16:00 +30°C° 0.7 mm 3 mps 744 mmHg 75%
    17:00 +29°C° 0.7 mm 3 mps 744 mmHg 79%
    18:00 +29°C° 0.7 mm 2 mps 744 mmHg 82%
    19:00 +28°C° 0.1 mm 2 mps 744 mmHg 84%
    20:00 +27°C° 0.1 mm 2 mps 745 mmHg 87%
    21:00 +25°C° 0.1 mm 2 mps 745 mmHg 89%
    22:00 +25°C° 0 mm 2 mps 745 mmHg 90%
    23:00 +25°C° 0 mm 2 mps 745 mmHg 92%

    Day after tomorrow, 27 June, Thursday

    Time Temperature Precipitation Wind Pressure Humidity
    00:00 +24°C° 0 mm 2 mps 745 mmHg 94%
    01:00 +24°C° 0 mm 2 mps 745 mmHg 94%
    02:00 +24°C° 0 mm 2 mps 745 mmHg 94%
    03:00 +23°C° 0 mm 2 mps 745 mmHg 95%
    04:00 +24°C° 0.2 mm 2 mps 745 mmHg 94%
    05:00 +24°C° 0.2 mm 2 mps 746 mmHg 94%
    06:00 +24°C° 0.2 mm 2 mps 746 mmHg 93%
    07:00 +26°C° 0.2 mm 2 mps 746 mmHg 90%
    08:00 +27°C° 0.2 mm 2 mps 746 mmHg 86%
    09:00 +28°C° 0.2 mm 2 mps 746 mmHg 82%
    10:00 +30°C° 0.3 mm 2 mps 746 mmHg 77%
    11:00 +31°C° 0.3 mm 3 mps 746 mmHg 72%
    12:00 +33°C° 0.3 mm 3 mps 746 mmHg 68%
    13:00 +33°C° 0 mm 4 mps 746 mmHg 68%
    14:00 +33°C° 0 mm 4 mps 745 mmHg 69%
    15:00 +33°C° 0 mm 5 mps 745 mmHg 69%
    16:00 +32°C° 0 mm 4 mps 745 mmHg 74%
    17:00 +32°C° 0 mm 4 mps 745 mmHg 78%
    18:00 +30°C° 0 mm 3 mps 745 mmHg 83%
    19:00 +29°C° 0 mm 3 mps 745 mmHg 85%
    20:00 +27°C° 0 mm 3 mps 745 mmHg 87%
    21:00 +26°C° 0 mm 3 mps 745 mmHg 89%
    22:00 +25°C° 0.1 mm 3 mps 745 mmHg 90%
    23:00 +25°C° 0.1 mm 2 mps 745 mmHg 92%

    28 June, Friday

    Time Temperature Precipitation Wind Pressure Humidity
    00:00 +25°C° 0.1 mm 2 mps 746 mmHg 93%
    01:00 +24°C° 0.1 mm 2 mps 745 mmHg 94%
    02:00 +24°C° 0.1 mm 2 mps 745 mmHg 95%
    03:00 +24°C° 0.1 mm 2 mps 745 mmHg 95%
    04:00 +24°C° 1.8 mm 2 mps 745 mmHg 95%
    05:00 +24°C° 1.8 mm 3 mps 746 mmHg 95%
    06:00 +24°C° 1.8 mm 3 mps 746 mmHg 95%
    07:00 +25°C° 0.4 mm 3 mps 746 mmHg 90%
    08:00 +26°C° 0.4 mm 3 mps 746 mmHg 85%
    09:00 +27°C° 0.4 mm 2 mps 746 mmHg 80%
    10:00 +28°C° 0 mm 3 mps 746 mmHg 76%
    11:00 +29°C° 0 mm 3 mps 746 mmHg 71%
    12:00 +31°C° 0 mm 3 mps 746 mmHg 67%
    13:00 +31°C° 0 mm 3 mps 746 mmHg 67%
    14:00 +31°C° 0 mm 3 mps 745 mmHg 68%
    15:00 +32°C° 0 mm 4 mps 745 mmHg 68%
    16:00 +30°C° 0.7 mm 3 mps 745 mmHg 73%
    17:00 +29°C° 0.7 mm 3 mps 745 mmHg 79%
    18:00 +28°C° 0.7 mm 2 mps 745 mmHg 84%
    19:00 +27°C° 0.1 mm 2 mps 745 mmHg 86%
    20:00 +26°C° 0.1 mm 2 mps 745 mmHg 88%
    21:00 +25°C° 0.1 mm 1 mps 745 mmHg 89%
    22:00 +25°C° 0.1 mm 2 mps 745 mmHg 90%
    23:00 +25°C° 0.1 mm 2 mps 745 mmHg 91%

    29 June, Saturday

    Time Temperature Precipitation Wind Pressure Humidity
    00:00 +24°C° 0.1 mm 2 mps 745 mmHg 91%
    01:00 +24°C° 0 mm 2 mps 745 mmHg 92%
    02:00 +24°C° 0 mm 2 mps 745 mmHg 92%
    03:00 +23°C° 0 mm 2 mps 744 mmHg 92%
    04:00 +24°C° 0 mm 2 mps 745 mmHg 92%
    05:00 +24°C° 0 mm 2 mps 745 mmHg 92%
    06:00 +25°C° 0 mm 2 mps 745 mmHg 92%
    07:00 +26°C° 0 mm 2 mps 745 mmHg 87%
    08:00 +28°C° 0 mm 3 mps 745 mmHg 83%
    09:00 +30°C° 0 mm 3 mps 745 mmHg 79%
    10:00 +31°C° 0.3 mm 3 mps 745 mmHg 75%
    11:00 +31°C° 0.3 mm 3 mps 745 mmHg 71%
    12:00 +33°C° 0.3 mm 3 mps 745 mmHg 68%
    13:00 +33°C° 0 mm 3 mps 744 mmHg 68%
    14:00 +34°C° 0 mm 4 mps 744 mmHg 68%
    15:00 +34°C° 0 mm 4 mps 744 mmHg 68%
    16:00 +33°C° 0 mm 4 mps 743 mmHg 72%
    17:00 +31°C° 0 mm 3 mps 743 mmHg 76%
    18:00 +30°C° 0 mm 3 mps 743 mmHg 79%
    19:00 +29°C° 0 mm 3 mps 743 mmHg 82%
    20:00 +28°C° 0 mm 3 mps 743 mmHg 86%
    21:00 +27°C° 0 mm 3 mps 743 mmHg 89%
    22:00 +26°C° 0.2 mm 3 mps 743 mmHg 90%
    23:00 +25°C° 0.2 mm 3 mps 743 mmHg 91%

    30 June, Sunday

    Time Temperature Precipitation Wind Pressure Humidity
    00:00 +25°C° 0.2 mm 3 mps 743 mmHg 93%
    01:00 +25°C° 0 mm 3 mps 743 mmHg 93%
    02:00 +24°C° 0 mm 3 mps 743 mmHg 93%
    03:00 +24°C° 0 mm 3 mps 743 mmHg 93%
    04:00 +24°C° 0.1 mm 3 mps 743 mmHg 93%
    05:00 +25°C° 0.1 mm 3 mps 743 mmHg 92%
    06:00 +25°C° 0.1 mm 2 mps 743 mmHg 92%
    07:00 +27°C° 0 mm 3 mps 743 mmHg 88%
    08:00 +28°C° 0 mm 3 mps 743 mmHg 83%
    09:00 +30°C° 0 mm 4 mps 743 mmHg 79%
    10:00 +32°C° 0 mm 4 mps 743 mmHg 77%
    11:00 +33°C° 0 mm 5 mps 742 mmHg 74%
    12:00 +33°C° 0 mm 5 mps 742 mmHg 72%
    13:00 +34°C° 0 mm 5 mps 742 mmHg 72%
    14:00 +34°C° 0 mm 5 mps 741 mmHg 72%
    15:00 +34°C° 0 mm 5 mps 741 mmHg 72%
    16:00 +33°C° 0 mm 4 mps 741 mmHg 76%
    17:00 +33°C° 0 mm 4 mps 741 mmHg 81%
    18:00 +31°C° 0 mm 3 mps 740 mmHg 85%
    19:00 +30°C° 0 mm 3 mps 741 mmHg 87%
    20:00 +28°C° 0 mm 3 mps 741 mmHg 90%
    21:00 +27°C° 0 mm 3 mps 741 mmHg 92%
    22:00 +26°C° 0 mm 3 mps 741 mmHg 93%
    23:00 +26°C° 0 mm 3 mps 740 mmHg 94%
    Show more